Location: Asheville, NC
(35.6000°N, 82.5500°W)
Time: 23:01:21

XW-2D - Pass Details

Date: 15 March 2018
Orbit: 511 x 530 km, 97.5° (Epoch: 20 March)

Event Time Altitude Azimuth Distance (km) Brightness Sun altitude
Rises 06:56:00 0° 24° (NNE) 2,662 ? -10.0°
Reaches altitude 10° 06:58:19 10° 35° (NE) 1,771 ? -9.5°
Maximum altitude 07:01:40 29° 97° (E) 986 ? -8.8°
Drops below altitude 10° 07:05:01 10° 159° (SSE) 1,765 ? -8.1°
Sets 07:07:19 0° 170° (S) 2,650 ? -7.7°
